Hourly Data Report for April 30, 2021

TOBERMORY RCS
ONTARIO
Current Station Operator: ECCC - MSC

45°14'00.000" N
81°38'00.000" W
213.50 m
6128330
71767
TTR

Download Data

Hourly Data (April 2021)
Hourly Data Report for April 30, 2021
TIME
LST
Temp Definition
°C
Dew Point Definition
°C
Rel Hum Definition
%
Precip. Amount Definition
mm

Wind Dir Definition
10's deg

Wind Spd Definition
km/h
Visibility Definition
km
Stn Press Definition
kPa
Hmdx Definition


Wind Chill Definition


Weather Definition


00:00 5.6 2.8 82 0.0 29 24   97.85     LegendNANA
01:00 4.6 3.1 90 0.0 29 24   97.84     LegendNANA
02:00 4.6 3.1 90 0.0 30 25   97.83     LegendNANA
03:00 4.3 3.1 92 0.0 30 21   97.84     LegendNANA
04:00 4.3 3.3 93 0.0 29 26   97.86     LegendNANA
05:00 4.1 2.8 91 0.0 30 26   97.93     LegendNANA
06:00 4.5 2.9 90 0.0 31 19   97.98     LegendNANA
07:00 4.5 0.9 77 0.0 32 26   98.08     LegendNANA
08:00 5.3 0.5 71 0.0 31 25   98.12     LegendNANA
09:00 3.8 -0.3 75 0.0 31 27   98.22     LegendNANA
10:00 4.2 -0.4 72 0.0 31 24   98.29     LegendNANA
11:00 4.7 -1.9 63 0.0 34 29   98.38     LegendNANA
12:00 5.6 -2.3 57 0.0 33 26   98.45     LegendNANA
13:00 7.2 -5.3 40 0.0 33 25   98.51     LegendNANA
14:00 8.0 -2.7 47 0.0 31 26   98.57     LegendNANA
15:00 8.7 -4.6 39 0.0 31 24   98.62     LegendNANA
16:00 6.5 0.3 64 0.0 30 25   98.72     LegendNANA
17:00 6.6 -1.0 59 0.0 30 24   98.80     LegendNANA
18:00 5.8 -0.3 65 0.0 29 22   98.87     LegendNANA
19:00 4.9 -0.8 66 0.0 30 24   98.94     LegendNANA
20:00 4.6 -1.2 66 0.0 30 22   98.99     LegendNANA
21:00 4.2 -0.7 70 0.0 30 16   99.06     LegendNANA
22:00 4.3 -1.4 66 0.0 32 15   99.12     LegendNANA
23:00 4.1 -1.4 68 0.0 32 14   99.17     LegendNANA

Notes on Data Quality.

Legend

  • E = Estimated
  • M = Missing
  • NA = Not Available*
  • [empty] = Indicates an unobserved value
Date modified: